Temp
-5 -6 -6 -6 -6 -7 -7 -7 -6 -5 -6 -5 -5 -5 -6 -7 -7 -7 -7 -7 -7 -6
-6 -6 -6 -6 -7 -7 -7 -7 -7 -7 -7 -6 -6 -6 -6 -8 -7 -7 -7 -7 -6 -6
-7 -7 -7 -7 -7 -7 -7 -7 -8 -8 -8 -7 -7 -7 -7 -8 -8 -8 -7 -7 -7 -7
-7 -7 -8 -8 -8 -8 -8 -9 -9 -8 -8 -8 -8 -8 -8 -9 -9 -8 -8 -8 -8 -7
-8 -8 -8 -9 -9 -9 -9 -9 -9 -9 -9 -9 -8 -8 -8 -9 -10 -9 -9 -8 -8 -8
-8 -8 -9 -9 -9 -9 -9 -9 -9 -10 -10 -10 -10 -9 -9 -10 -11 -10 -9 -9 -9 -8
-9 -10 -10 -10 -10 -10 -10 -10 -10 -11 -11 -11 -11 -10 -10 -12 -11 -11 -10 -9 -9 -8
-10 -10 -10 -10 -11 -11 -11 -11 -11 -11 -11 -11 -12 -11 -13 -12 -11 -10 -10 -9 -8 -8
-12 -12 -12 -12 -12 -12 -12 -12 -12 -12 -12 -12 -12 -11 -13 -12 -11 -10 -10 -9 -8 -8
-13 -13 -13 -13 -13 -13 -14 -14 -13 -13 -13 -13 -13 -13 -13 -12 -11 -11 -11 -10 -10 -10
-14 -14 -15 -15 -15 -15 -15 -15 -15 -14 -14 -15 -14 -15 -14 -13 -12 -12 -12 -12 -12 -11
-15 -15 -16 -16 -16 -16 -16 -16 -16 -16 -16 -15 -15 -14 -14 -13 -14 -13 -13 -13 -13 -13
-17 -17 -17 -16 -16 -16 -17 -17 -17 -17 -16 -15 -16 -14 -15 -14 -14 -14 -13 -13 -13 -12
-17 -17 -17 -17 -17 -17 -17 -17 -17 -17 -16 -16 -15 -14 -15 -14 -13 -13 -13 -13 -13 -12
Height
893 894 895 896 896 895 895 893 892 890 889 888 887 886 885 885 884 882 881 880 879 878
892 893 893 893 894 892 892 892 891 890 889 888 887 886 884 883 882 881 880 879 878 876
891 891 892 892 892 890 890 891 891 890 888 887 884 883 882 881 881 879 878 877 875 874
888 889 890 890 889 888 888 889 889 887 886 885 883 881 880 879 879 877 876 875 873 871
885 886 887 886 886 886 886 885 886 884 883 883 881 879 878 876 875 874 872 871 869 867
883 883 884 883 883 883 882 881 881 882 881 880 878 876 874 873 872 870 869 866 864 862
879 879 880 880 879 878 878 879 878 878 878 876 874 872 871 869 867 865 863 861 859 857
872 873 874 874 874 874 874 874 874 874 873 871 869 868 867 865 863 860 857 855 853 850
871 871 870 869 869 869 870 869 869 868 867 865 863 862 861 860 857 854 851 848 845 843
870 870 870 869 868 868 868 867 865 864 862 859 857 855 854 853 851 848 844 842 839 836
869 869 868 868 866 865 865 863 861 859 857 854 851 850 848 846 843 840 837 835 832 829
868 867 866 865 863 862 860 858 856 854 851 848 845 843 842 840 837 833 830 827 824 822
866 864 862 862 859 857 856 853 851 849 846 843 840 838 836 835 831 827 823 820 816 812
862 861 859 857 855 853 851 849 847 843 841 838 834 831 829 828 824 820 815 810 805 802
Wind_Speed
9 8 7 6 5 3 2 2 3 4 5 5 5 6 7 5 6 6 6 6 5 5
12 10 8 7 6 5 4 5 5 4 5 4 5 6 6 6 6 7 6 6 6 7
12 11 9 9 8 6 6 8 8 7 7 7 7 7 8 7 7 8 8 8 9 9
13 12 11 10 9 8 9 9 10 10 10 10 10 10 10 9 9 10 11 11 11 13
15 14 12 12 11 10 10 11 12 13 13 14 13 13 14 13 13 13 13 14 15 16
15 14 14 13 12 12 12 13 14 15 15 16 15 16 16 16 15 15 15 16 17 18
15 15 14 13 13 13 14 15 15 16 17 17 17 17 18 16 16 17 18 19 20 21
14 15 14 14 13 14 14 15 16 17 17 18 19 18 15 16 19 21 22 22 23 24
11 11 11 11 12 13 14 14 16 17 19 20 21 21 19 21 22 24 25 26 26 27
4 6 8 9 10 11 13 15 17 18 19 21 23 22 20 22 23 25 25 27 28 29
5 6 8 10 11 14 15 17 18 19 19 20 22 20 20 22 23 24 25 26 28 30
9 10 11 14 15 15 16 16 16 16 18 19 21 20 19 22 23 24 25 25 26 28
11 12 14 16 16 16 15 16 15 16 19 21 22 23 22 21 23 25 26 27 28 29
13 15 16 16 16 16 16 16 18 20 20 22 24 23 20 22 25 26 27 28 29 29
Wind_Direction
198 200 208 217 225 233 275 315 358 15 22 29 28 24 15 11 9 4 1 2 356 341
214 217 222 230 243 252 277 300 313 325 334 343 353 352 355 344 350 348 340 335 331 327
229 229 234 242 246 260 274 280 288 299 306 312 324 329 335 330 325 327 324 320 317 317
233 240 242 247 257 264 271 275 285 293 300 303 308 312 315 314 312 310 308 308 308 306
238 242 246 251 258 266 271 279 288 293 295 295 298 301 303 304 304 302 301 302 302 302
245 249 252 255 260 267 275 284 288 290 289 289 292 295 297 297 296 293 292 294 294 296
250 253 257 263 270 276 282 286 288 286 287 290 292 295 297 296 293 292 291 290 289 288
244 252 258 263 267 274 281 285 286 287 287 291 294 296 293 294 292 290 289 287 285 283
261 261 257 258 266 274 278 279 280 284 288 291 291 294 292 292 291 288 286 286 285 283
284 279 279 281 284 284 284 283 284 286 288 290 292 296 294 293 289 286 283 282 282 282
321 304 296 293 292 292 291 291 290 291 293 294 296 298 297 296 293 287 282 280 280 280
306 299 298 296 296 295 294 292 291 293 297 299 303 306 303 301 295 290 286 284 281 280
304 302 301 299 298 297 294 294 294 294 296 299 297 303 299 296 291 288 288 286 284 282
305 302 301 299 297 296 294 289 290 293 295 296 301 304 298 296 291 288 286 283 284 285